This is the latest recevied weather packets stored in our database for station/object DL9GRB-13. If no packets are shown the sender has not sent any weather packets the latest 1 day(s).
| Time | Temp. | Humidity | Pressure | Rain* | Wind** | Luminosity | Snow |
|---|---|---|---|---|---|---|---|
| 1778005688 | 11.67° C | 66% | 1009 hPa | 0 mm | 0 m/s | 15 W/m² | - |
| 1778005508 | 12.22° C | 65% | 1008.9 hPa | 0 mm | 1.79 m/s, 312° | 17 W/m² | - |
| 1778005328 | 12.22° C | 65% | 1008.9 hPa | 0 mm | 2.24 m/s, 88° | 21 W/m² | - |
| 1778005148 | 12.22° C | 64% | 1008.9 hPa | 0 mm | 2.68 m/s, 25° | 24 W/m² | - |
| 1778004968 | 12.78° C | 64% | 1009.2 hPa | 0 mm | 8.49 m/s, 325° | 26 W/m² | - |
| 1778004788 | 12.78° C | 63% | 1009.1 hPa | 0 mm | 4.92 m/s, 3° | 28 W/m² | - |
| 1778004608 | 12.22° C | 65% | 1009.2 hPa | 0 mm | 4.47 m/s, 47° | 30 W/m² | - |
| 1778004428 | 12.22° C | 64% | 1009 hPa | 0 mm | 2.68 m/s, 31° | 30 W/m² | - |
| 1778004248 | 12.22° C | 65% | 1009.1 hPa | 0 mm | 4.47 m/s, 5° | 29 W/m² | - |
| 1778003888 | 12.78° C | 64% | 1009.2 hPa | 0 mm | 6.71 m/s, 9° | 32 W/m² | - |
| 1778003708 | 12.78° C | 63% | 1009.1 hPa | 0 mm | 3.13 m/s, 48° | 32 W/m² | - |
| 1778003528 | 13.33° C | 62% | 1009.1 hPa | 0 mm | 2.68 m/s, 360° | 37 W/m² | - |
| 1778003348 | 13.33° C | 62% | 1008.9 hPa | 0 mm | 2.24 m/s, 85° | 44 W/m² | - |
| 1778003168 | 13.33° C | 62% | 1009 hPa | 0 mm | 6.71 m/s, 10° | 46 W/m² | - |
| 1778002988 | 13.33° C | 61% | 1009 hPa | 0 mm | 2.68 m/s, 10° | 47 W/m² | - |
| 1778002808 | 13.33° C | 61% | 1009.1 hPa | 0 mm | 1.79 m/s, 88° | 47 W/m² | - |
| 1778002628 | 13.89° C | 60% | 1009 hPa | 0 mm | 4.92 m/s, 15° | 54 W/m² | - |
| 1778002448 | 13.89° C | 59% | 1009 hPa | 0 mm | 2.68 m/s, 60° | 56 W/m² | - |
| 1778002268 | 13.89° C | 59% | 1009.2 hPa | 0 mm | 2.24 m/s, 8° | 60 W/m² | - |
| 1778002092 | 13.89° C | 59% | 1009.1 hPa | 0 mm | 3.58 m/s, 118° | 63 W/m² | - |
| 1778001908 | 13.89° C | 58% | 1009.2 hPa | 0 mm | 4.47 m/s, 43° | 65 W/m² | - |
| 1778001728 | 13.89° C | 59% | 1009 hPa | 0 mm | 4.02 m/s, 347° | 66 W/m² | - |
| 1778001548 | 13.89° C | 60% | 1009.2 hPa | 0 mm | 4.47 m/s, 78° | 54 W/m² | - |
| 1778001368 | 13.89° C | 61% | 1009.2 hPa | 0 mm | 3.58 m/s, 39° | 58 W/m² | - |
| 1778001188 | 13.89° C | 60% | 1009.2 hPa | 0 mm | 4.92 m/s, 63° | 69 W/m² | - |
* Rain latest hour (hover to see other rain measurements)
** Current wind speed in m/s (hover to see current wind gust speed)